Weather History for KVVV - January, 2013

Change the Weather History Date:

Wednesday, January 9, 2013

  Actual Average (KAQP) Record (KAQP)
Temperature  
Mean Temperature 29 °F -  
Max Temperature 35 °F 18 °F 53 °F (2012)
Min Temperature 23 °F 2 °F -23 °F (1999)
Degree Days  
Heating Degree Days 36    
Moisture  
Dew Point 20 °F    
Average Humidity 71    
Maximum Humidity 86    
Minimum Humidity 60    
Precipitation  
Precipitation 0.00 in - - ()
Sea Level Pressure  
Sea Level Pressure 30.14 in    
Wind  
Wind Speed 13 mph (SSW)    
Max Wind Speed 22 mph    
Max Gust Speed 31 mph    
Visibility 10 miles    
Events      
Averages and records for this station are not official NWS values.
T = Trace of Precipitation, MM = Missing Value Source: NWS Daily Summary

Daily Weather History Graph

Daily Weather History Graph

Search for Another Location

Airport or City:

Trip Planner

Search our weather history database for the weather conditions in past years. The results will help you decide how hot, cold, wet, or windy it might be!

Date:

Astronomy

Jan. 09, 2013 Rise Set
Actual Time 8:03 AM CST 5:02 PM CST
Civil Twilight 7:30 AM CST 5:35 PM CST
Nautical Twilight 6:53 AM CST 6:12 PM CST
Astronomical Twilight 6:18 AM CST 6:48 PM CST
Moon 5:44 AM CST (1/9) 3:04 PM CST (1/9)
Length of Visible Light 10h 05m
Length of Day
8h 58m
Waning Crescent, 6% of the Moon is Illuminated
Jan 9
Waning Crescent
Jan 11
New
Jan 18
First Quarter
Jan 26
Full
Feb 3
Last Quarter

Hourly Weather History & Observations

Time (CST) Temp. Windchill Dew Point Humidity Pressure Visibility Wind Dir Wind Speed Gust Speed Precip Events Conditions
12:14 AM 33.8 °F 24.8 °F 26.6 °F 75% 29.91 in 10.0 mi West 12.7 mph - N/A   Clear
12:34 AM 33.8 °F 23.9 °F 26.6 °F 75% 29.91 in 10.0 mi West 15.0 mph 20.7 mph N/A   Clear
12:53 AM 33.8 °F 23.5 °F 26.6 °F 75% 29.91 in 10.0 mi WSW 16.1 mph 21.9 mph N/A   Clear
1:14 AM 33.8 °F 23.5 °F 26.6 °F 75% 29.92 in 10.0 mi West 16.1 mph 23.0 mph N/A   Clear
1:33 AM 33.8 °F 23.2 °F 24.8 °F 70% 29.93 in 10.0 mi West 17.3 mph 23.0 mph N/A   Clear
1:54 AM 35.6 °F 24.8 °F 24.8 °F 65% 29.95 in 10.0 mi West 19.6 mph 25.3 mph N/A   Clear
2:13 AM 33.8 °F 23.5 °F 24.8 °F 70% 29.96 in 10.0 mi West 16.1 mph 25.3 mph N/A   Clear
2:34 AM 33.8 °F 23.2 °F 24.8 °F 70% 29.98 in 10.0 mi West 17.3 mph 27.6 mph N/A   Clear
2:54 AM 33.8 °F 21.9 °F 23.0 °F 65% 29.98 in 10.0 mi West 21.9 mph 26.5 mph N/A   Clear
3:14 AM 33.8 °F 22.5 °F 23.0 °F 65% 30.00 in 10.0 mi West 19.6 mph 27.6 mph N/A   Clear
3:34 AM 33.8 °F 21.9 °F 23.0 °F 65% 30.01 in 10.0 mi West 21.9 mph 31.1 mph N/A   Clear
3:54 AM 32.0 °F 19.5 °F 21.2 °F 64% 30.02 in 10.0 mi West 21.9 mph 29.9 mph N/A   Clear
4:14 AM 32.0 °F 20.1 °F 21.2 °F 64% 30.04 in 10.0 mi West 19.6 mph 26.5 mph N/A   Clear
4:34 AM 30.2 °F 18.9 °F 21.2 °F 69% 30.06 in 10.0 mi West 16.1 mph 23.0 mph N/A   Clear
4:54 AM 30.2 °F 19.8 °F 21.2 °F 69% 30.07 in 10.0 mi WNW 13.8 mph - N/A   Clear
5:14 AM 30.2 °F 20.2 °F 19.4 °F 64% 30.08 in 10.0 mi WNW 12.7 mph - N/A   Clear
5:34 AM 30.2 °F 19.8 °F 19.4 °F 64% 30.08 in 10.0 mi WNW 13.8 mph 18.4 mph N/A   Clear
5:54 AM 28.4 °F 17.0 °F 19.4 °F 69% 30.08 in 10.0 mi WNW 15.0 mph - N/A   Clear
6:13 AM 28.4 °F 18.5 °F 19.4 °F 69% 30.09 in 10.0 mi WNW 11.5 mph - N/A   Clear
6:34 AM 28.4 °F 18.5 °F 19.4 °F 69% 30.10 in 10.0 mi WNW 11.5 mph 17.3 mph N/A   Clear
7:14 AM 26.6 °F 18.2 °F 17.6 °F 69% 30.13 in 10.0 mi WNW 8.1 mph - N/A   Clear
7:34 AM 26.6 °F 17.5 °F 17.6 °F 69% 30.13 in 10.0 mi NW 9.2 mph - N/A   Clear
7:53 AM 26.6 °F 16.2 °F 17.6 °F 69% 30.14 in 10.0 mi WNW 11.5 mph - N/A   Clear
8:14 AM 26.6 °F 16.2 °F 17.6 °F 69% 30.16 in 10.0 mi WNW 11.5 mph - N/A   Clear
8:34 AM 26.6 °F 16.8 °F 17.6 °F 69% 30.16 in 10.0 mi WNW 10.4 mph - N/A   Clear
8:54 AM 26.6 °F 17.5 °F 17.6 °F 69% 30.16 in 10.0 mi NW 9.2 mph - N/A   Clear
9:14 AM 28.4 °F 19.7 °F 17.6 °F 64% 30.17 in 10.0 mi NW 9.2 mph - N/A   Clear
9:33 AM 28.4 °F 19.7 °F 17.6 °F 64% 30.17 in 10.0 mi NW 9.2 mph - N/A   Clear
9:54 AM 28.4 °F 20.4 °F 17.6 °F 64% 30.17 in 10.0 mi NW 8.1 mph - N/A   Clear
10:13 AM 28.4 °F 22.2 °F 17.6 °F 64% 30.18 in 10.0 mi WNW 5.8 mph - N/A   Clear
10:34 AM 28.4 °F 24.6 °F 17.6 °F 64% 30.20 in 10.0 mi West 3.5 mph - N/A   Clear
10:54 AM 28.4 °F 23.3 °F 17.6 °F 64% 30.21 in 10.0 mi West 4.6 mph - N/A   Clear
11:14 AM 30.2 °F 25.4 °F 17.6 °F 60% 30.23 in 10.0 mi WNW 4.6 mph - N/A   Clear
11:34 AM 30.2 °F - 19.4 °F 64% 30.24 in 10.0 mi Calm Calm - N/A   Clear
11:53 AM 30.2 °F - 19.4 °F 64% 30.24 in 10.0 mi Calm Calm - N/A   Clear
12:14 PM 32.0 °F 28.7 °F 19.4 °F 60% 30.25 in 10.0 mi South 3.5 mph - N/A   Clear
12:34 PM 32.0 °F 28.7 °F 19.4 °F 60% 30.25 in 10.0 mi SW 3.5 mph - N/A   Clear
12:54 PM 32.0 °F 26.4 °F 19.4 °F 60% 30.26 in 10.0 mi South 5.8 mph - N/A   Clear
1:14 PM 32.0 °F 25.6 °F 21.2 °F 64% 30.26 in 10.0 mi SSE 6.9 mph - N/A   Clear
1:34 PM 32.0 °F 26.4 °F 21.2 °F 64% 30.26 in 10.0 mi SSE 5.8 mph - N/A   Clear
1:54 PM 32.0 °F 25.6 °F 21.2 °F 64% 30.26 in 10.0 mi SE 6.9 mph - N/A   Clear
2:14 PM 32.0 °F 23.6 °F 19.4 °F 60% 30.26 in 10.0 mi South 10.4 mph - N/A   Clear
2:34 PM 33.8 °F 26.4 °F 21.2 °F 60% 30.26 in 10.0 mi South 9.2 mph - N/A   Clear
2:54 PM 32.0 °F 24.2 °F 21.2 °F 64% 30.26 in 10.0 mi SSE 9.2 mph - N/A   Clear
3:14 PM 32.0 °F 24.8 °F 21.2 °F 64% 30.26 in 10.0 mi SSE 8.1 mph - N/A   Clear
3:34 PM 30.2 °F 24.3 °F 23.0 °F 75% 30.26 in 10.0 mi SSE 5.8 mph - N/A   Clear
3:54 PM 30.2 °F 22.6 °F 21.2 °F 69% 30.24 in 10.0 mi SE 8.1 mph - N/A   Clear
4:14 PM 30.2 °F 21.9 °F 21.2 °F 69% 30.24 in 10.0 mi SE 9.2 mph - N/A   Clear
4:34 PM 28.4 °F 20.4 °F 21.2 °F 74% 30.24 in 10.0 mi SSE 8.1 mph - N/A   Clear
4:54 PM 28.4 °F 19.7 °F 21.2 °F 74% 30.23 in 10.0 mi SE 9.2 mph - N/A   Clear
5:14 PM 26.6 °F 16.8 °F 19.4 °F 74% 30.22 in 10.0 mi SE 10.4 mph - N/A   Clear
5:34 PM 24.8 °F 14.0 °F 19.4 °F 80% 30.22 in 10.0 mi SE 11.5 mph - N/A   Clear
5:54 PM 24.8 °F 14.0 °F 19.4 °F 80% 30.22 in 10.0 mi SE 11.5 mph - N/A   Clear
6:14 PM 24.8 °F 14.6 °F 19.4 °F 80% 30.20 in 10.0 mi SE 10.4 mph - N/A   Clear
6:34 PM 24.8 °F 14.6 °F 19.4 °F 80% 30.20 in 10.0 mi SE 10.4 mph - N/A   Clear
6:54 PM 24.8 °F 12.9 °F 19.4 °F 80% 30.20 in 10.0 mi SE 13.8 mph - N/A   Clear
7:14 PM 24.8 °F 12.9 °F 19.4 °F 80% 30.19 in 10.0 mi SE 13.8 mph - N/A   Clear
7:34 PM 24.8 °F 12.9 °F 19.4 °F 80% 30.17 in 10.0 mi SE 13.8 mph - N/A   Clear
7:54 PM 24.8 °F 11.9 °F 19.4 °F 80% 30.17 in 10.0 mi SE 16.1 mph - N/A   Clear
8:13 PM 24.8 °F 11.5 °F 19.4 °F 80% 30.17 in 10.0 mi SE 17.3 mph - N/A   Clear
8:34 PM 23.0 °F 10.1 °F 19.4 °F 86% 30.15 in 10.0 mi SSE 15.0 mph - N/A   Clear
8:54 PM 23.0 °F 10.1 °F 19.4 °F 86% 30.14 in 10.0 mi SE 15.0 mph - N/A   Clear
9:14 PM 24.8 °F 14.0 °F 19.4 °F 80% 30.13 in 10.0 mi SE 11.5 mph - N/A   Clear
9:34 PM 24.8 °F 11.5 °F 19.4 °F 80% 30.12 in 10.0 mi SE 17.3 mph - N/A   Clear
9:54 PM 24.8 °F 13.4 °F 19.4 °F 80% 30.11 in 10.0 mi SSE 12.7 mph - N/A   Clear
10:14 PM 24.8 °F 12.9 °F 19.4 °F 80% 30.10 in 10.0 mi SE 13.8 mph - N/A   Clear
10:34 PM 24.8 °F 15.3 °F 19.4 °F 80% 30.09 in 10.0 mi SE 9.2 mph - N/A   Clear
10:54 PM 24.8 °F 13.4 °F 19.4 °F 80% 30.10 in 10.0 mi SE 12.7 mph - N/A   Clear
11:14 PM 24.8 °F 14.0 °F 19.4 °F 80% 30.11 in 10.0 mi SE 11.5 mph - N/A   Clear
11:34 PM 24.8 °F 14.6 °F 21.2 °F 86% 30.10 in 10.0 mi SE 10.4 mph - N/A   Clear
11:54 PM 24.8 °F 16.1 °F 21.2 °F 86% 30.09 in 10.0 mi SSE 8.1 mph - N/A   Clear